STARLINK-36036 (66608 NORAD) Tracking and Keplerian Element Data

This shows tracking and keplerian element data for the satellite.

Feedback or suggestion? Click here.




ElementValue
Catalog66608
NameSTARLINK-36036
Epoch Orbit523
Epoch Day353.49158595
Epoch Year2025
RAAN153.1562
Inclination42.999
Eccentricity0.0001538
Argument of Perigee266.4602
Mean Anonmoly93.6082
Mean Motion15.50612484
Decay Rate0.00060643
L11 66608U 25270W 25353.49158595 .00060643 00000+0 10303-2 0 9993
L22 66608 42.9990 153.1562 0001538 266.4602 93.6082 15.50612484 5231



Live tracking and technical data element details for STARLINK-36036 (NORAD 66608). STARLINK-36036 can be tracked NOW for your location showing map with azimuth and elevation plus other details from your city location.







IsCatalogInMostPopularTable: catalog: 66608, numindb: 21
Update: records affected: 1



GetName: 66608 STARLINK-36036

Hit Count: updated at: Sat, 11 Apr 2026 20:07:35 GMT